DW6761 Weather Reports


time (UTC)temp
C
wind
direction
speed
KPH
gust
KPH
rain 1hr
cm
rain 24hr
cm
rain mn
cm
humidity
%
barometer
mb
20191019151527 14 216 4.8 0.0 0.00 0.00 0.10 83 1005.8
20191019150047 14 92 6.4 0.0 0.00 0.00 0.03 79 1005.6
20191019144547 15 142 4.8 0.0 0.00 0.00 0.00 76 1005.4
20191019143105 15 228 6.4 0.0 0.00 0.00 0.00 75 1005.4
20191019141537 15 119 4.8 0.0 0.00 0.00 0.00 74 1005.4
20191019140045 15 227 4.8 0.0 0.00 0.00 0.00 73 1005.4
20191019134522 15 252 6.4 0.0 0.00 0.00 0.00 73 1005.4
20191019133025 15 129 6.4 0.0 0.00 0.00 0.00 73 1005.3
20191019131524 15 149 4.8 0.0 0.00 0.00 0.00 72 1005.5
20191019124525 15 136 4.8 0.0 0.00 0.00 0.00 74 1005.5
20191019123020 15 156 6.4 0.0 0.00 0.00 0.00 75 1005.6
20191019121516 15 119 6.4 0.0 0.00 0.00 0.00 75 1005.8
20191019120012 15 231 6.4 0.0 0.00 0.00 0.00 75 1005.9
20191019114516 15 148 4.8 0.0 0.00 0.00 0.00 74 1005.8
20191019113018 15 188 6.4 0.0 0.00 0.00 0.00 73 1006.1
20191019111509 15 132 8.0 0.0 0.00 0.00 0.00 73 1006.0
20191019110005 15 133 6.4 0.0 0.00 0.00 0.00 75 1006.1
20191019104648 14 227 4.8 0.0 0.00 0.00 0.00 78 1006.4
20191019103133 13 144 6.4 0.0 0.00 0.00 0.00 80 1006.4
20191019101740 13 128 6.4 0.0 0.00 0.00 0.00 81 1006.5
20191019100148 12 138 4.8 0.0 0.00 0.00 0.00 81 1006.5
20191019094644 12 160 4.8 0.0 0.00 0.00 0.00 81 1006.5
20191019093254 12 171 8.0 0.0 0.00 0.00 0.00 80 1006.4
20191019091640 12 202 6.4 0.0 0.00 0.00 0.00 80 1006.3
20191019090234 12 151 8.0 0.0 0.00 0.00 0.00 80 1006.2
20191019084637 12 153 6.4 0.0 0.00 0.00 0.00 80 1006.3
20191019083114 12 116 4.8 0.0 0.00 0.00 0.00 80 1006.3
20191019081750 12 159 4.8 0.0 0.00 0.00 0.00 80 1006.3
20191019080112 12 136 4.8 0.0 0.00 0.00 0.00 80 1006.2
20191019074623 11 139 4.8 0.0 0.00 0.00 0.00 80 1006.3
20191019073055 11 136 4.8 0.0 0.00 0.00 0.00 81 1006.4
20191019071636 11 130 4.8 0.0 0.00 0.00 0.00 82 1006.6
20191019070048 11 156 3.2 0.0 0.00 0.00 0.00 81 1006.9
20191019064624 11 149 4.8 0.0 0.00 0.00 0.00 81 1006.8
20191019063035 10 128 4.8 0.0 0.00 0.00 0.00 82 1006.8
20191019061609 10 157 4.8 0.0 0.00 0.00 0.00 82 1006.8
20191019060034 10 128 3.2 0.0 0.00 0.00 0.00 81 1006.9
20191019054540 10 116 4.8 0.0 0.00 0.00 0.00 82 1006.8
20191019053028 10 185 4.8 0.0 0.00 0.00 0.00 81 1007.2
20191019051522 10 117 4.8 0.0 0.00 0.00 0.00 81 1007.1
20191019050042 10 137 4.8 0.0 0.00 0.00 0.00 80 1007.4
20191019044541 10 145 4.8 0.0 0.00 0.00 0.00 80 1007.5
20191019043021 10 161 4.8 0.0 0.00 0.00 0.00 80 1007.4
20191019041516 10 124 4.8 0.0 0.00 0.00 0.00 81 1007.6
20191019040024 10 217 3.2 0.0 0.00 0.00 0.00 82 1007.6
20191019034534 10 125 3.2 0.0 0.00 0.00 0.00 83 1007.6
20191019033012 10 119 1.6 0.0 0.00 0.00 0.00 82 1007.8
20191019031512 10 136 3.2 0.0 0.00 0.00 0.00 82 1008.0
20191019030012 10 105 3.2 0.0 0.00 0.00 0.00 82 1008.1
20191019024507 9 128 4.8 0.0 0.00 0.00 0.00 82 1007.9
20191019023008 9 156 4.8 0.0 0.00 0.00 0.00 82 1008.2
20191019021505 9 135 3.2 0.0 0.00 0.00 0.00 82 1008.2
20191019020029 9 157 4.8 0.0 0.00 0.00 0.00 82 1008.2
20191019014503 9 140 4.8 0.0 0.00 0.00 0.00 82 1008.2
20191019013002 9 121 3.2 0.0 0.00 0.00 0.00 82 1008.3
20191019011624 9 124 3.2 0.0 0.00 0.00 0.00 82 1008.4
20191019010139 9 143 3.2 0.0 0.00 0.00 0.00 83 1008.5
20191019004642 9 132 1.6 0.0 0.00 0.00 0.00 82 1008.5
20191019003216 9 145 1.6 0.0 0.00 0.00 0.00 82 1008.6
20191019001640 9 134 3.2 0.0 0.00 0.00 0.00 81 1008.6
20191019000148 10 173 3.2 0.0 0.00 0.00 0.00 80 1008.7
20191018234646 10 138 4.8 0.0 0.00 0.00 0.00 79 1008.7
20191018233131 10 130 3.2 0.0 0.00 0.00 0.00 79 1008.7
20191018231721 10 147 3.2 0.0 0.00 0.00 0.00 78 1008.8
20191018230211 10 136 3.2 0.0 0.00 0.00 0.00 77 1008.8
20191018224629 10 175 4.8 0.0 0.00 0.00 0.00 77 1009.0
20191018223116 10 132 1.6 0.0 0.00 0.00 0.00 78 1009.1
20191018221608 10 128 3.2 0.0 0.00 0.00 0.00 78 1009.1
20191018220113 10 234 3.2 0.0 0.00 0.00 0.00 78 1009.0
20191018214617 10 221 3.2 0.0 0.00 0.00 0.05 77 1008.9
20191018213149 10 216 3.2 0.0 0.00 0.00 0.05 77 1009.0
20191018211641 10 164 4.8 0.0 0.00 0.00 0.05 76 1009.0
20191018210132 10 157 6.4 0.0 0.00 0.00 0.05 76 1009.1
20191018204628 10 238 8.0 0.0 0.00 0.00 0.05 77 1009.1
20191018203117 10 218 4.8 0.0 0.00 0.00 0.05 77 1009.0
20191018201606 10 148 4.8 0.0 0.00 0.00 0.05 78 1009.0
20191018200101 10 134 3.2 0.0 0.00 0.00 0.05 79 1009.1
20191018194623 10 206 3.2 0.0 0.00 0.00 0.05 81 1009.2
20191018193108 10 112 3.2 0.0 0.00 0.00 0.05 82 1009.1
20191018191603 10 159 1.6 0.0 0.00 0.00 0.05 82 1009.1
20191018190125 10 165 1.6 0.0 0.00 0.00 0.05 82 1009.0
20191018184546 10 139 1.6 0.0 0.00 0.00 0.05 81 1009.1
20191018183100 10 144 1.6 0.0 0.00 0.00 0.05 80 1009.1
20191018181646 10 177 4.8 0.0 0.00 0.00 0.05 78 1009.1
20191018180046 11 136 4.8 0.0 0.00 0.00 0.05 77 1008.8
20191018174550 11 136 6.4 0.0 0.00 0.00 0.05 76 1008.8
20191018173031 11 234 6.4 0.0 0.00 0.00 0.05 76 1008.7
20191018171538 11 196 6.4 0.0 0.00 0.00 0.05 76 1008.8
20191018170039 11 252 6.4 0.0 0.00 0.00 0.05 75 1008.7
20191018164533 11 235 8.0 0.0 0.00 0.00 0.05 74 1008.5
20191018163032 12 233 8.0 0.0 0.00 0.00 0.05 73 1008.4
20191018161543 12 234 9.7 0.0 0.00 0.00 0.05 71 1008.1
20191018160026 12 231 8.0 0.0 0.00 0.00 0.05 70 1008.0
20191018154549 12 281 11.3 0.0 0.00 0.00 0.05 69 1007.9
20191018153042 13 235 11.3 0.0 0.00 0.00 0.05 68 1007.8